EW1620 Weather Reports


Display with metric or nautical units.
time (UTC)temp
F
wind
direction
speed
MPH
gust
MPH
rain 1hr
in
rain 24hr
in
rain mn
in
humidity
%
barometer
mb
20260904060555 61 33 7.0 16.0 0.00 0.00 0.00 58 1014.8
20260904060055 62 336 5.0 13.0 0.00 0.00 0.00 58 1014.9
20260904055554 62 333 2.0 12.0 0.00 0.00 0.00 58 1015.0
20260904055054 62 319 5.0 15.0 0.00 0.00 0.00 57 1015.0
20260904054554 63 326 5.0 15.0 0.00 0.00 0.00 56 1015.1
20260904054052 63 360 7.0 13.0 0.00 0.00 0.00 56 1015.2
20260904053552 64 49 6.0 14.0 0.00 0.00 0.00 55 1015.1
20260904053105 64 340 7.0 13.0 0.00 0.00 0.00 55 1015.3
20260904052552 64 312 6.0 13.0 0.00 0.00 0.00 55 1015.3
20260904052052 64 12 6.0 12.0 0.00 0.00 0.00 56 1015.2
20260904051551 63 13 7.0 13.0 0.00 0.00 0.00 56 1015.3
20260904050551 63 25 4.0 11.0 0.00 0.00 0.00 57 1015.3
20260904050052 62 5 4.0 10.0 0.00 0.00 0.00 56 1015.5
20260904045550 62 332 4.0 10.0 0.00 0.00 0.00 56 1015.5
20260904045051 62 306 3.0 12.0 0.00 0.00 0.00 56 1015.5
20260904044554 62 285 7.0 12.0 0.00 0.00 0.00 55 1015.5
20260904044051 63 300 6.0 14.0 0.00 0.00 0.00 55 1015.5
20260904043550 63 346 7.0 14.0 0.00 0.00 0.00 54 1015.5
20260904043058 63 5 4.0 13.0 0.00 0.00 0.00 53 1015.6
20260904042550 64 323 7.0 13.0 0.00 0.00 0.00 53 1015.6
20260904042051 64 347 4.0 12.0 0.00 0.00 0.00 52 1015.5
20260904041549 64 333 4.0 15.0 0.00 0.00 0.00 51 1015.5
20260904040529 65 329 9.0 15.0 0.00 0.00 0.00 50 1015.8
20260904040027 65 360 4.0 13.0 0.00 0.00 0.00 50 1015.6
20260904035530 65 52 6.0 13.0 0.00 0.00 0.00 50 1015.6
20260904035025 65 5 4.0 13.0 0.00 0.00 0.00 50 1015.5
20260904034526 64 336 5.0 13.0 0.00 0.00 0.00 51 1015.4
20260904034024 64 360 4.0 12.0 0.00 0.00 0.00 53 1015.6
20260904033524 63 11 5.0 14.0 0.00 0.00 0.00 53 1015.7
20260904033028 63 266 3.0 14.0 0.00 0.00 0.00 53 1015.8
20260904032517 63 288 8.0 18.0 0.00 0.00 0.00 53 1016.1
20260904032016 62 278 8.0 16.0 0.00 0.00 0.00 53 1016.3
20260904031516 62 291 6.0 14.0 0.00 0.00 0.00 54 1016.4
20260904031015 62 9 6.0 14.0 0.00 0.00 0.00 53 1016.5
20260904030515 62 295 7.0 13.0 0.00 0.00 0.00 54 1016.5
20260904030014 61 269 8.0 15.0 0.00 0.03 0.00 53 1016.5
20260904025514 62 281 8.0 15.0 0.00 0.03 0.00 52 1016.7
20260904025014 62 284 7.0 15.0 0.00 0.03 0.00 52 1016.8
20260904024512 62 297 7.0 16.0 0.00 0.03 0.00 51 1016.8
20260904024112 63 248 11.0 19.0 0.00 0.03 0.00 50 1017.0
20260904023513 63 301 8.0 14.0 0.00 0.03 0.00 51 1016.9
20260904023013 62 288 6.0 17.0 0.00 0.03 0.00 52 1016.9
20260904022511 62 275 5.0 12.0 0.00 0.03 0.00 53 1017.0
20260904022011 61 301 4.0 13.0 0.00 0.03 0.00 54 1017.1
20260904021509 61 292 4.0 15.0 0.00 0.03 0.00 55 1017.1
20260904021009 61 300 8.0 16.0 0.00 0.03 0.00 52 1017.3
20260904020509 61 284 9.0 16.0 0.00 0.03 0.00 52 1017.4
20260904020006 61 284 7.0 15.0 0.00 0.03 0.00 51 1017.5
20260904015509 61 317 8.0 15.0 0.00 0.03 0.00 51 1017.5
20260904015006 61 298 7.0 14.0 0.00 0.03 0.00 51 1017.6
20260904014504 61 300 7.0 14.0 0.00 0.03 0.00 52 1017.8
20260904014103 60 351 6.0 13.0 0.00 0.03 0.00 53 1017.9
20260904013600 60 275 6.0 13.0 0.00 0.03 0.00 52 1017.9
20260904013121 60 294 4.0 12.0 0.00 0.03 0.00 54 1018.1
20260904012558 60 294 6.0 12.0 0.00 0.03 0.00 52 1018.2
20260904012057 60 295 6.0 11.0 0.00 0.03 0.00 53 1018.2
20260904011635 59 336 3.0 10.0 0.00 0.03 0.00 53 1018.2
20260904011054 59 269 3.0 11.0 0.00 0.03 0.00 53 1018.0
20260904010553 58 250 1.0 11.0 0.00 0.03 0.00 54 1018.2
20260904010052 58 290 4.0 11.0 0.00 0.03 0.00 53 1018.2
20260904005550 58 304 4.0 9.0 0.00 0.03 0.00 55 1018.2
20260904005049 58 269 3.0 9.0 0.00 0.03 0.00 55 1018.3
20260904004548 57 284 4.0 9.0 0.00 0.03 0.00 54 1018.6
20260904004047 57 323 4.0 12.0 0.00 0.03 0.00 54 1018.9
20260904003553 57 331 5.0 13.0 0.00 0.03 0.00 54 1018.9
20260904003054 57 323 7.0 13.0 0.00 0.03 0.00 55 1019.0
20260904002553 57 286 3.0 11.0 0.00 0.03 0.00 56 1019.2
20260904002052 56 344 4.0 10.0 0.00 0.03 0.00 55 1019.2
20260904001551 56 350 3.0 11.0 0.00 0.03 0.00 55 1019.4
20260904001050 56 296 6.0 11.0 0.00 0.03 0.00 55 1019.6
20260904000549 56 282 4.0 10.0 0.00 0.03 0.00 56 1019.5
20260904000049 56 333 4.0 9.0 0.00 0.03 0.00 58 1019.5
20260903235549 56 330 5.0 9.0 0.00 0.03 0.00 58 1019.5
20260903235047 56 27 3.0 5.0 0.00 0.03 0.00 60 1019.4
20260903234546 56 342 2.0 8.0 0.00 0.03 0.00 60 1019.6
20260903234046 55 345 1.0 11.0 0.00 0.03 0.00 62 1019.5
20260903233543 55 325 2.0 11.0 0.00 0.03 0.00 62 1019.5
20260903233041 54 329 3.0 11.0 0.00 0.03 0.00 61 1019.5
20260903232540 54 257 3.0 14.0 0.00 0.03 0.00 62 1019.6
20260903232039 54 331 6.0 14.0 0.00 0.03 0.00 62 1019.7
20260903231545 53 301 8.0 16.0 0.00 0.03 0.00 63 1019.7
20260903231035 53 332 8.0 16.0 0.00 0.03 0.00 65 1019.5
20260903230534 52 313 4.0 15.0 0.00 0.03 0.00 69 1019.5
20260903230035 51 324 5.0 15.0 0.00 0.03 0.00 74 1020.0
20260903225535 50 292 5.0 11.0 0.00 0.03 0.00 80 1020.1
20260903225031 49 284 4.0 8.0 0.00 0.03 0.00 86 1020.0
20260903224537 48 20 0.0 3.0 0.00 0.03 0.00 88 1019.9
20260903224027 47 65 1.0 3.0 0.00 0.03 0.00 90 1019.9
20260903223526 47 65 1.0 3.0 0.00 0.03 0.00 90 1019.9
20260903223021 46 69 1.0 3.0 0.00 0.03 0.00 91 1020.0
20260903222521 45 67 0.0 3.0 0.00 0.03 0.00 91 1020.2
20260903222019 45 12 1.0 3.0 0.00 0.03 0.00 92 1020.2
20260903221517 44 321 0.0 3.0 0.00 0.03 0.00 91 1020.3
20260903221019 43 320 0.0 1.0 0.00 0.03 0.00 91 1020.2
20260903220514 42 320 0.0 2.0 0.00 0.03 0.00 91 1020.0
20260903220013 42 348 0.0 3.0 0.00 0.03 0.00 91 1020.0
20260903215512 41 341 1.0 3.0 0.00 0.03 0.00 91 1019.8
20260903215011 40 324 0.0 0.0 0.00 0.03 0.00 90 1019.7
20260903214508 39 324 0.0 1.0 0.00 0.03 0.00 89 1019.6
20260903214008 39 324 0.0 1.0 0.00 0.03 0.00 89 1019.5
20260903213512 39 324 0.0 1.0 0.00 0.03 0.00 89 1019.5
20260903213007 38 324 0.0 2.0 0.00 0.03 0.00 88 1019.5
20260903212506 38 324 0.0 2.0 0.00 0.03 0.00 88 1019.5
20260903212004 37 324 0.0 2.0 0.00 0.03 0.00 88 1019.4
20260903211503 37 324 0.0 2.0 0.00 0.03 0.00 87 1019.4
20260903211001 37 324 0.0 2.0 0.00 0.03 0.00 86 1019.4
20260903210600 37 324 0.0 2.0 0.00 0.03 0.00 86 1019.4
20260903210139 36 229 0.0 1.0 0.00 0.03 0.00 86 1019.3
20260903205602 36 229 0.0 1.0 0.00 0.03 0.00 86 1019.3
20260903205059 36 229 0.0 1.0 0.00 0.03 0.00 85 1019.3
20260903204604 36 229 0.0 1.0 0.00 0.03 0.00 85 1019.2
20260903204056 36 229 0.0 1.0 0.00 0.03 0.00 84 1019.1
20260903203056 36 229 0.0 1.0 0.00 0.03 0.00 84 1019.1
20260903202554 36 229 0.0 1.0 0.00 0.03 0.00 84 1019.1
20260903202054 37 229 0.0 1.0 0.00 0.03 0.00 84 1019.1
20260903201553 37 229 0.0 0.0 0.00 0.03 0.00 84 1019.1
20260903201053 37 229 0.0 0.0 0.00 0.03 0.00 84 1019.2
20260903200553 37 229 0.0 0.0 0.00 0.03 0.00 84 1019.3
20260903200105 37 229 0.0 0.0 0.00 0.03 0.00 84 1019.2
20260903195553 37 229 0.0 0.0 0.00 0.03 0.00 84 1019.2
20260903195052 37 229 0.0 0.0 0.00 0.03 0.00 84 1019.1
20260903194551 37 229 0.0 1.0 0.00 0.03 0.00 84 1019.0
20260903194049 37 229 0.0 1.0 0.00 0.03 0.00 84 1019.2
20260903193053 37 229 0.0 1.0 0.00 0.03 0.00 84 1019.1
20260903192550 37 229 0.0 1.0 0.00 0.03 0.00 84 1019.0
20260903192050 37 229 0.0 1.0 0.00 0.03 0.00 84 1018.9
20260903191600 38 229 0.0 1.0 0.00 0.03 0.00 84 1018.9
20260903191050 38 229 0.0 0.0 0.00 0.03 0.00 84 1018.8
20260903190548 38 229 0.0 1.0 0.00 0.03 0.00 84 1018.8
20260903190051 38 229 0.0 1.0 0.00 0.03 0.00 83 1018.8
20260903185547 38 229 0.0 1.0 0.00 0.03 0.00 84 1018.6
20260903185046 38 229 0.0 1.0 0.00 0.03 0.00 84 1018.7
20260903184547 38 229 0.0 0.0 0.00 0.03 0.00 84 1018.7
20260903184048 38 229 0.0 0.0 0.00 0.03 0.00 84 1018.7
20260903183053 38 229 0.0 0.0 0.00 0.03 0.00 83 1018.8
20260903182550 39 229 0.0 1.0 0.00 0.03 0.00 84 1018.8
20260903182047 39 229 0.0 1.0 0.00 0.03 0.00 83 1018.8
20260903181546 39 229 0.0 1.0 0.00 0.03 0.00 84 1018.8
20260903181045 39 229 0.0 0.0 0.00 0.03 0.00 84 1018.8
20260903180547 39 229 0.0 1.0 0.00 0.03 0.00 84 1018.8
20260903180046 39 229 0.0 1.0 0.00 0.03 0.00 83 1018.8
20260903175544 39 229 0.0 0.0 0.00 0.03 0.00 83 1018.8
20260903175045 39 229 0.0 1.0 0.00 0.03 0.00 83 1018.9
20260903174543 39 229 0.0 1.0 0.00 0.03 0.00 83 1018.9
20260903174042 39 229 0.0 0.0 0.00 0.03 0.00 83 1018.9
20260903173041 40 229 0.0 0.0 0.00 0.03 0.00 83 1019.0
20260903172543 40 229 0.0 0.0 0.00 0.03 0.00 84 1019.0
20260903172041 40 229 0.0 0.0 0.00 0.03 0.00 84 1019.0
20260903171547 40 229 0.0 0.0 0.00 0.03 0.00 83 1019.0
20260903171039 40 229 0.0 0.0 0.00 0.03 0.00 83 1019.0
20260903170538 40 229 0.0 0.0 0.00 0.03 0.00 84 1019.0
20260903170043 40 229 0.0 1.0 0.00 0.03 0.00 83 1019.0
20260903165537 40 229 0.0 2.0 0.00 0.03 0.00 83 1019.0
20260903165037 40 229 0.0 2.0 0.00 0.03 0.00 83 1019.1
20260903164536 40 297 0.0 1.0 0.00 0.03 0.00 82 1019.1
20260903164035 40 297 0.0 1.0 0.00 0.03 0.00 82 1019.2
20260903163038 40 297 0.0 0.0 0.00 0.03 0.00 82 1019.2
20260903162532 40 297 0.0 0.0 0.00 0.03 0.00 81 1019.3
20260903162032 41 297 0.0 0.0 0.00 0.03 0.00 81 1019.4
20260903161531 41 297 0.0 0.0 0.00 0.03 0.00 81 1019.5
20260903161031 41 297 0.0 1.0 0.00 0.03 0.00 81 1019.5
20260903160530 41 297 0.0 1.0 0.00 0.03 0.00 81 1019.6
20260903160029 41 297 0.0 0.0 0.00 0.03 0.00 81 1019.6
20260903155531 41 297 0.0 1.0 0.00 0.03 0.00 81 1019.6
20260903155035 41 297 0.0 1.0 0.00 0.03 0.00 80 1019.7
20260903154527 41 297 0.0 0.0 0.00 0.03 0.00 80 1019.6
20260903154026 42 297 0.0 0.0 0.00 0.03 0.00 80 1019.6
20260903153026 42 297 0.0 0.0 0.00 0.03 0.00 80 1019.6
20260903152525 42 297 0.0 0.0 0.00 0.03 0.00 80 1019.6
20260903152023 42 297 0.0 1.0 0.00 0.03 0.00 79 1019.6
20260903151523 42 297 0.0 1.0 0.00 0.03 0.00 79 1019.7
20260903151022 43 297 0.0 1.0 0.00 0.03 0.00 79 1019.7
20260903150520 43 297 0.0 1.0 0.00 0.03 0.00 79 1019.6
20260903150034 43 297 0.0 0.0 0.00 0.03 0.00 78 1019.7
20260903145520 43 297 0.0 1.0 0.00 0.03 0.00 78 1019.6
20260903145018 43 297 0.0 1.0 0.00 0.03 0.00 78 1019.7
20260903144517 43 297 0.0 1.0 0.00 0.03 0.00 78 1019.6
20260903144017 44 297 0.0 0.0 0.00 0.03 0.00 77 1019.7
20260903143017 44 297 0.0 0.0 0.00 0.03 0.00 76 1019.7
20260903142513 44 297 0.0 0.0 0.00 0.03 0.00 76 1019.7
20260903142011 45 298 0.0 0.0 0.00 0.03 0.00 76 1019.7
20260903141515 45 298 0.0 0.0 0.00 0.03 0.00 76 1019.7
20260903141012 45 297 0.0 0.0 0.00 0.03 0.00 75 1019.7
20260903140508 45 297 0.0 0.0 0.00 0.03 0.00 75 1019.8
20260903140008 45 297 0.0 0.0 0.00 0.03 0.03 75 1019.9
20260903135511 45 298 0.0 1.0 0.00 0.03 0.03 75 1019.9
20260903135007 46 298 0.0 1.0 0.00 0.03 0.03 75 1019.9
20260903134507 46 298 0.0 1.0 0.00 0.03 0.03 74 1019.9
20260903134006 46 298 0.0 1.0 0.00 0.03 0.03 74 1019.9
20260903133009 46 297 0.0 0.0 0.00 0.03 0.03 74 1019.9
20260903132509 46 298 0.0 1.0 0.00 0.03 0.03 74 1019.9
20260903132008 47 298 0.0 2.0 0.00 0.03 0.03 74 1019.8
20260903131509 47 298 0.0 2.0 0.00 0.03 0.03 74 1019.9
20260903131009 47 298 0.0 1.0 0.00 0.03 0.03 74 1019.9
20260903130508 47 298 0.0 1.0 0.00 0.03 0.03 74 1020.0
20260903130008 47 265 0.0 1.0 0.00 0.03 0.03 74 1020.0
20260903125508 48 265 0.0 1.0 0.00 0.03 0.03 74 1019.9
20260903125008 48 265 0.0 2.0 0.00 0.03 0.03 74 1019.9
20260903124511 48 265 0.0 2.0 0.00 0.03 0.03 74 1019.9
20260903124007 48 355 0.0 2.0 0.00 0.03 0.03 74 1019.9
20260903123007 48 9 0.0 3.0 0.00 0.03 0.03 74 1019.9
20260903122509 48 288 0.0 3.0 0.00 0.03 0.03 74 1019.8
20260903122006 48 286 0.0 3.0 0.00 0.03 0.03 73 1019.7
20260903121508 49 286 0.0 3.0 0.00 0.03 0.03 73 1019.6
20260903121009 49 288 0.0 2.0 0.00 0.03 0.03 73 1019.6
20260903120505 49 303 0.0 2.0 0.00 0.03 0.03 73 1019.6
20260903120005 49 303 0.0 2.0 0.00 0.03 0.03 72 1019.5
20260903115505 49 303 0.0 3.0 0.00 0.03 0.03 72 1019.4
20260903115003 49 303 0.0 3.0 0.00 0.03 0.03 72 1019.4
20260903114504 49 284 1.0 3.0 0.00 0.03 0.03 71 1019.4
20260903114002 50 281 0.0 2.0 0.00 0.03 0.03 71 1019.3
20260903113004 50 281 0.0 2.0 0.00 0.03 0.03 70 1019.2
20260903112504 50 281 1.0 2.0 0.00 0.03 0.03 70 1019.2
20260903112006 51 269 0.0 2.0 0.00 0.03 0.03 69 1019.3
20260903111503 51 269 0.0 1.0 0.00 0.03 0.03 69 1019.2
20260903111003 51 269 0.0 1.0 0.00 0.03 0.03 69 1019.1
20260903110503 51 269 0.0 1.0 0.00 0.03 0.03 69 1019.0
20260903110002 51 269 0.0 2.0 0.00 0.03 0.03 69 1019.0
20260903105503 52 269 0.0 1.0 0.00 0.03 0.03 69 1019.0
20260903105102 52 269 0.0 2.0 0.00 0.03 0.03 68 1018.9
20260903104601 52 269 0.0 3.0 0.00 0.03 0.03 68 1018.9
20260903104059 52 269 0.0 3.0 0.00 0.03 0.03 68 1018.7
20260903103001 53 279 0.0 2.0 0.00 0.03 0.03 67 1018.5
20260903102559 53 303 1.0 2.0 0.00 0.03 0.03 67 1018.4
20260903102059 53 306 1.0 3.0 0.00 0.03 0.03 67 1018.3
20260903101603 54 346 0.0 3.0 0.00 0.03 0.03 66 1018.2
20260903101059 54 346 1.0 3.0 0.00 0.03 0.03 65 1018.2
20260903100558 54 254 0.0 1.0 0.00 0.03 0.03 64 1018.1
20260903100057 55 254 0.0 1.0 0.00 0.03 0.03 64 1018.0
20260903095600 55 254 0.0 1.0 0.00 0.03 0.03 64 1018.0
20260903095056 55 254 0.0 1.0 0.00 0.03 0.03 64 1017.9
20260903094639 55 254 0.0 1.0 0.00 0.03 0.03 63 1017.8
20260903094055 56 254 0.0 1.0 0.00 0.03 0.03 63 1017.7
20260903093050 56 254 0.0 0.0 0.00 0.03 0.03 63 1017.8
20260903092550 56 254 0.0 0.0 0.00 0.03 0.03 63 1017.8
20260903092049 56 254 0.0 3.0 0.00 0.03 0.03 63 1017.6
20260903091546 56 254 0.0 4.0 0.00 0.03 0.03 63 1017.6
20260903091045 57 254 1.0 4.0 0.00 0.03 0.03 62 1017.5
20260903090544 57 262 1.0 6.0 0.00 0.03 0.03 62 1017.4
20260903090044 57 278 2.0 7.0 0.00 0.03 0.03 61 1017.3
20260903085542 57 254 2.0 7.0 0.00 0.03 0.03 60 1017.3
20260903085042 57 206 1.0 7.0 0.00 0.03 0.03 59 1017.1
20260903084544 57 257 0.0 6.0 0.00 0.03 0.03 59 1017.1
20260903084040 57 269 1.0 7.0 0.00 0.03 0.03 58 1016.9
20260903083045 58 265 1.0 7.0 0.00 0.03 0.03 57 1016.8
20260903082544 58 248 2.0 7.0 0.00 0.03 0.03 57 1016.6
20260903082043 58 264 2.0 6.0 0.00 0.03 0.03 57 1016.5
20260903081543 59 258 2.0 8.0 0.00 0.03 0.03 56 1016.5
20260903081041 59 273 2.0 8.0 0.00 0.03 0.03 56 1016.4
20260903080541 60 242 1.0 2.0 0.00 0.03 0.03 57 1016.4
20260903080055 60 257 0.0 2.0 0.00 0.03 0.03 57 1016.3
20260903075540 60 257 0.0 3.0 0.00 0.03 0.03 57 1016.2
20260903075038 60 257 1.0 3.0 0.00 0.03 0.03 56 1016.2
20260903074537 61 263 1.0 4.0 0.00 0.03 0.03 56 1016.1
20260903074036 61 229 1.0 4.0 0.00 0.03 0.03 54 1016.0
20260903073033 61 222 3.0 9.0 0.00 0.03 0.03 53 1015.7
20260903072531 62 251 1.0 9.0 0.00 0.03 0.03 51 1015.6
20260903072032 62 205 4.0 11.0 0.00 0.03 0.03 50 1015.6
20260903071530 62 260 4.0 10.0 0.00 0.03 0.03 49 1015.5
20260903071028 62 274 3.0 10.0 0.00 0.03 0.03 48 1015.4
20260903070528 62 273 3.0 11.0 0.00 0.03 0.03 48 1015.3
20260903070028 62 254 4.0 11.0 0.00 0.03 0.03 47 1015.3
20260903065527 63 276 5.0 12.0 0.00 0.03 0.03 47 1015.2
20260903065026 63 266 4.0 13.0 0.00 0.03 0.03 46 1015.1
20260903064526 63 241 4.0 13.0 0.00 0.03 0.03 46 1015.1
20260903064025 63 236 5.0 12.0 0.00 0.03 0.03 46 1015.0
20260903063022 64 204 6.0 12.0 0.00 0.03 0.03 44 1014.7
20260903062522 64 258 5.0 15.0 0.00 0.03 0.03 44 1014.7
20260903062021 64 283 5.0 15.0 0.00 0.03 0.03 43 1014.6
20260903061521 64 273 6.0 12.0 0.00 0.03 0.03 43 1014.6
20260903061021 64 269 6.0 13.0 0.00 0.03 0.03 43 1014.5